{"data":{"norad_id":29486,"intl_designator":"2006-042A","name":"GPS BIIRM-2 (PRN 31)","alt_names":[],"object_type":"PAYLOAD","status":"ACTIVE","operator":null,"country":"US","launch_date":"2006-09-25","launch_site_code":"AFETR","launch_vehicle":null,"mission":null,"orbit_class":"UNKNOWN","rcs_meters":11.7863,"size_class":null,"mass_kg":null,"dimensions":null,"purposes":["nav"],"wikipedia_slug":null,"has_3d_model":false,"image_url":null,"decayed_at":null,"tle_current":{"epoch":"2026-09-19T11:23:54.732192Z","epoch_age_seconds":96317,"freshness":"FRESH","line1":"1 29486U 06042A   26262.47493903 -.00000020  00000+0  00000+0 0  9999","line2":"2 29486  54.7158 147.5934 0108964  57.3279 124.8096  2.00565127146284","mean_motion":2.00565127,"eccentricity":0.0108964,"inclination_deg":54.7158,"raan_deg":147.5934,"arg_perigee_deg":57.3279,"mean_anomaly_deg":124.8096,"bstar":0,"rev_number":14628,"period_min":717.9712752357,"perigee_km":19892.665650426,"apogee_km":20471.487068122,"semimajor_km":26560.213359274,"source":"CELESTRAK","updated_at":"2026-09-20T09:00:46.085479Z"}}}